Location: Cheyres
(46.8153°N, 6.7877°E)
Time: 00:29:35
(UTC+00:00)

Tiros 1 - Pass Details

Date: 30 May 2022
Orbit: 629 x 663 km, 48.4° (Epoch: 05 July)

Event Time Altitude Azimuth Distance (km) Brightness Sun altitude
Exits shadow 23:39:54 41° 240° (WSW) 917 7.6 -21.3°
Maximum altitude 23:41:29 79° 161° (SSE) 647 6.9 -21.3°
Drops below altitude 10° 23:46:08 10° 75° (ENE) 2,020 9.9 -21.2°
Sets 23:48:28 0° 74° (ENE) 2,935 10.8 -21.2°
